Weather History for Monett, MO

Change the Weather History Date:

Monday, January 21, 2013

  Actual Average (KJLN) Record (KJLN)
Temperature  
Mean Temperature 26 °F 35 °F  
Max Temperature 32 °F 45 °F 73 °F (1957)
Min Temperature 19 °F 25 °F -11 °F (1984)
Degree Days  
Heating Degree Days 40 30  
Month to date heating degree days 630  
Since 1 July heating degree days 2247  
Cooling Degree Days 0 0  
Month to date cooling degree days 0  
Year to date cooling degree days 0  
Moisture  
Dew Point 14 °F    
Average Humidity 62    
Maximum Humidity 74    
Minimum Humidity 44    
Precipitation  
Precipitation 0.00 in 0.06 in 0.69 in (2010)
Month to date precipitation 1.39  
Year to date precipitation 1.39  
Sea Level Pressure  
Sea Level Pressure 30.32 in    
Wind  
Wind Speed 8 mph (NNE)    
Max Wind Speed 12 mph    
Max Gust Speed 16 mph    
Visibility 10 miles    
Events      
T = Trace of Precipitation, MM = Missing Value Source: NWS Daily Summary

Daily Weather History Graph

Daily Weather History Graph

Search for Another Location

Airport:

Trip Planner

Search our weather history database for the weather conditions in past years. The results will help you decide how hot, cold, wet, or windy it might be!

Date:

Astronomy

Jan. 21, 2013 Rise Set
Actual Time 7:25 AM CST 5:29 PM CST
Civil Twilight 6:57 AM CST 5:57 PM CST
Nautical Twilight 6:26 AM CST 6:29 PM CST
Astronomical Twilight 5:55 AM CST 7:00 PM CST
Moon 1:10 PM CST (1/21) 2:54 AM CST (1/21)
Length of Visible Light 11h 00m
Length of Day
10h 04m
Waxing Gibbous, 75% of the Moon is Illuminated
Jan 21
Waxing Gibbous
Jan 26
Full
Feb 3
Last Quarter
Feb 10
New
Feb 17
First Quarter

Hourly Weather History & Observations

Time (CST) Temp. Windchill Dew Point Humidity Pressure Visibility Wind Dir Wind Speed Gust Speed Precip Events Conditions
12:15 AM 26.6 °F 20.0 °F 17.6 °F 69% 30.27 in 10.0 mi NNE 5.8 mph - N/A   Clear
12:35 AM 26.6 °F 20.0 °F 17.6 °F 69% 30.27 in 10.0 mi North 5.8 mph - N/A   Clear
12:55 AM 26.6 °F 16.8 °F 17.6 °F 69% 30.29 in 10.0 mi North 10.4 mph - N/A   Clear
1:15 AM 26.6 °F 19.1 °F 17.6 °F 69% 30.29 in 10.0 mi North 6.9 mph - N/A   Clear
1:35 AM 26.6 °F 16.2 °F 17.6 °F 69% 30.29 in 10.0 mi North 11.5 mph - N/A   Clear
1:55 AM 24.8 °F 15.3 °F 17.6 °F 74% 30.30 in 10.0 mi North 9.2 mph - N/A   Clear
2:15 AM 24.8 °F 14.0 °F 17.6 °F 74% 30.31 in 10.0 mi North 11.5 mph 16.1 mph N/A   Scattered Clouds
2:35 AM 23.0 °F 13.9 °F 15.8 °F 74% 30.32 in 10.0 mi NNE 8.1 mph - N/A   Clear
2:55 AM 23.0 °F 13.9 °F 15.8 °F 74% 30.32 in 10.0 mi North 8.1 mph - N/A   Clear
3:15 AM 23.0 °F 13.1 °F 14.0 °F 68% 30.32 in 10.0 mi North 9.2 mph - N/A   Clear
3:55 AM 23.0 °F 13.9 °F 14.0 °F 68% 30.33 in 10.0 mi North 8.1 mph - N/A   Clear
4:15 AM 21.2 °F 10.9 °F 12.2 °F 68% 30.33 in 10.0 mi North 9.2 mph - N/A   Clear
4:35 AM 23.0 °F 17.0 °F 12.2 °F 63% 30.33 in 10.0 mi North 4.6 mph - N/A   Clear
4:55 AM 21.2 °F 12.6 °F 12.2 °F 68% 30.33 in 10.0 mi North 6.9 mph - N/A   Clear
5:15 AM 21.2 °F 11.7 °F 12.2 °F 68% 30.33 in 10.0 mi North 8.1 mph - N/A   Clear
5:35 AM 21.2 °F 11.7 °F 12.2 °F 68% 30.33 in 10.0 mi North 8.1 mph - N/A   Clear
5:55 AM 21.2 °F 11.7 °F 12.2 °F 68% 30.33 in 10.0 mi North 8.1 mph - N/A   Clear
6:15 AM 21.2 °F 10.9 °F 12.2 °F 68% 30.34 in 10.0 mi North 9.2 mph - N/A   Clear
6:35 AM 21.2 °F 10.1 °F 12.2 °F 68% 30.34 in 10.0 mi North 10.4 mph - N/A   Clear
6:55 AM 19.4 °F 8.6 °F 12.2 °F 74% 30.34 in 10.0 mi North 9.2 mph - N/A   Clear
7:15 AM 19.4 °F 11.5 °F 12.2 °F 74% 30.33 in 10.0 mi NNE 5.8 mph - N/A   Clear
7:35 AM 19.4 °F 10.4 °F 12.2 °F 74% 30.34 in 10.0 mi NNE 6.9 mph - N/A   Clear
7:55 AM 19.4 °F 11.5 °F 12.2 °F 74% 30.34 in 10.0 mi NNE 5.8 mph - N/A   Clear
8:15 AM 21.2 °F 11.7 °F 12.2 °F 68% 30.36 in 10.0 mi NNE 8.1 mph - N/A   Clear
8:35 AM 21.2 °F 10.9 °F 12.2 °F 68% 30.36 in 10.0 mi NNE 9.2 mph - N/A   Clear
8:55 AM 23.0 °F 14.7 °F 12.2 °F 63% 30.37 in 10.0 mi North 6.9 mph - N/A   Clear
9:15 AM 23.0 °F 15.8 °F 12.2 °F 63% 30.37 in 10.0 mi NE 5.8 mph - N/A   Clear
9:35 AM 24.8 °F 16.9 °F 12.2 °F 59% 30.37 in 10.0 mi NNE 6.9 mph - N/A   Clear
9:55 AM 26.6 °F 20.0 °F 12.2 °F 55% 30.37 in 10.0 mi North 5.8 mph - N/A   Clear
10:15 AM 28.4 °F 23.3 °F 12.2 °F 51% 30.37 in 10.0 mi North 4.6 mph - N/A   Clear
10:35 AM 28.4 °F 21.2 °F 12.2 °F 51% 30.37 in 10.0 mi North 6.9 mph - N/A   Clear
10:55 AM 30.2 °F 23.4 °F 10.4 °F 44% 30.37 in 10.0 mi NNW 6.9 mph - N/A   Clear
11:15 AM 30.2 °F 24.3 °F 12.2 °F 47% 30.37 in 10.0 mi North 5.8 mph - N/A   Clear
11:35 AM 32.0 °F 24.2 °F 14.0 °F 48% 30.37 in 10.0 mi NNE 9.2 mph 16.1 mph N/A   Clear
11:55 AM 32.0 °F 24.8 °F 12.2 °F 44% 30.36 in 10.0 mi North 8.1 mph - N/A   Clear
12:15 PM 32.0 °F 24.2 °F 12.2 °F 44% 30.34 in 10.0 mi North 9.2 mph - N/A   Clear
12:35 PM 32.0 °F 23.0 °F 14.0 °F 48% 30.34 in 10.0 mi North 11.5 mph - N/A   Clear
12:55 PM 32.0 °F 24.2 °F 14.0 °F 48% 30.33 in 10.0 mi North 9.2 mph - N/A   Clear
1:15 PM 32.0 °F 23.0 °F 14.0 °F 48% 30.32 in 10.0 mi North 11.5 mph - N/A   Clear
1:35 PM 32.0 °F 25.6 °F 14.0 °F 48% 30.32 in 10.0 mi NNE 6.9 mph - N/A   Clear
1:55 PM 32.0 °F 23.0 °F 14.0 °F 48% 30.32 in 10.0 mi North 11.5 mph - N/A   Clear
2:15 PM 32.0 °F 23.6 °F 14.0 °F 48% 30.32 in 10.0 mi North 10.4 mph - N/A   Clear
2:55 PM 32.0 °F 25.6 °F 14.0 °F 48% 30.32 in 10.0 mi North 6.9 mph - N/A   Clear
3:15 PM 32.0 °F 24.2 °F 14.0 °F 48% 30.32 in 10.0 mi North 9.2 mph - N/A   Clear
3:35 PM 32.0 °F 23.0 °F 15.8 °F 51% 30.32 in 10.0 mi North 11.5 mph - N/A   Clear
3:55 PM 32.0 °F 24.2 °F 14.0 °F 48% 30.32 in 10.0 mi North 9.2 mph - N/A   Clear
4:15 PM 32.0 °F 28.7 °F 14.0 °F 48% 30.32 in 10.0 mi North 3.5 mph - N/A   Clear
4:35 PM 32.0 °F 27.5 °F 14.0 °F 48% 30.31 in 10.0 mi North 4.6 mph - N/A   Clear
4:55 PM 30.2 °F 24.3 °F 15.8 °F 55% 30.30 in 10.0 mi NNE 5.8 mph - N/A   Clear
5:15 PM 30.2 °F 26.7 °F 15.8 °F 55% 30.30 in 10.0 mi NNE 3.5 mph - N/A   Clear
5:35 PM 28.4 °F 24.6 °F 14.0 °F 55% 30.29 in 10.0 mi NNE 3.5 mph - N/A   Clear
5:55 PM 28.4 °F - 15.8 °F 59% 30.29 in 10.0 mi Calm Calm - N/A   Clear
6:15 PM 28.4 °F 24.6 °F 15.8 °F 59% 30.29 in 10.0 mi NNE 3.5 mph - N/A   Clear
6:55 PM 26.6 °F 19.1 °F 15.8 °F 64% 30.29 in 10.0 mi NNE 6.9 mph - N/A   Clear
7:15 PM 26.6 °F 18.2 °F 14.0 °F 59% 30.29 in 10.0 mi NNE 8.1 mph - N/A   Clear
7:35 PM 24.8 °F 16.9 °F 14.0 °F 64% 30.30 in 10.0 mi NE 6.9 mph - N/A   Clear
7:55 PM 23.0 °F 13.1 °F 14.0 °F 68% 30.30 in 10.0 mi NNE 9.2 mph - N/A   Clear
8:35 PM 23.0 °F 14.7 °F 14.0 °F 68% 30.31 in 10.0 mi NE 6.9 mph - N/A   Clear
8:55 PM 23.0 °F 15.8 °F 14.0 °F 68% 30.32 in 10.0 mi ENE 5.8 mph - N/A   Clear
9:15 PM 23.0 °F 15.8 °F 14.0 °F 68% 30.32 in 10.0 mi NE 5.8 mph - N/A   Clear
9:35 PM 21.2 °F 12.6 °F 14.0 °F 74% 30.31 in 10.0 mi NE 6.9 mph - N/A   Clear
9:55 PM 21.2 °F 11.7 °F 12.2 °F 68% 30.30 in 10.0 mi ENE 8.1 mph - N/A   Clear
10:15 PM 21.2 °F 13.6 °F 12.2 °F 68% 30.30 in 10.0 mi ENE 5.8 mph - N/A   Clear
10:35 PM 21.2 °F 14.9 °F 14.0 °F 74% 30.30 in 10.0 mi ENE 4.6 mph - N/A   Clear
10:55 PM 21.2 °F 11.7 °F 12.2 °F 68% 30.31 in 10.0 mi NNE 8.1 mph - N/A   Clear
11:15 PM 21.2 °F 14.9 °F 12.2 °F 68% 30.31 in 10.0 mi NE 4.6 mph - N/A   Scattered Clouds
11:35 PM 21.2 °F 13.6 °F 12.2 °F 68% 30.31 in 10.0 mi ENE 5.8 mph - N/A   Clear
11:55 PM 21.2 °F 13.6 °F 12.2 °F 68% 30.30 in 10.0 mi ENE 5.8 mph - N/A   Clear